Time,TemperatureF,DewpointF,PressureIn,WindDirection,WindDirectionDegrees,WindSpeedMPH,WindSpeedGustMPH,Humidity,HourlyPrecipIn,Conditions,Clouds,dailyrainin,SolarRadiationWatts/m^2,SoftwareType,DateUTC
2013-02-10 00:21:00,43.0,32.0,30.05,NE,54,10.0,47.0,64,0.00,,,0.00,0.000000,,2013-02-10 08:21:00,
2013-02-10 00:32:00,43.0,32.0,30.05,NE,54,10.0,47.0,64,0.00,,,0.00,0.000000,,2013-02-10 08:32:00,
2013-02-10 00:43:00,43.0,32.0,30.05,NE,54,10.0,47.0,64,0.00,,,0.00,0.000000,,2013-02-10 08:43:00,
2013-02-10 00:52:00,43.0,32.0,30.05,NE,54,10.0,47.0,64,0.00,,,0.00,0.000000,,2013-02-10 08:52:00,
2013-02-10 01:21:00,42.0,33.0,30.06,North,4,11.0,24.0,71,0.00,,,0.00,0.000000,,2013-02-10 09:21:00,
2013-02-10 01:31:00,42.0,33.0,30.06,North,4,11.0,24.0,71,0.00,,,0.00,0.000000,,2013-02-10 09:31:00,
2013-02-10 01:41:00,42.0,33.0,30.06,North,4,11.0,24.0,71,0.00,,,0.00,0.000000,,2013-02-10 09:41:00,
2013-02-10 01:51:00,42.0,33.0,30.06,North,4,11.0,24.0,71,0.00,,,0.00,0.000000,,2013-02-10 09:51:00,
2013-02-10 02:21:00,43.0,38.0,30.05,East,92,10.0,23.0,81,0.00,,,0.00,0.000000,,2013-02-10 10:21:00,
2013-02-10 02:31:00,43.0,38.0,30.05,East,92,10.0,23.0,81,0.00,,,0.00,0.000000,,2013-02-10 10:31:00,
2013-02-10 02:41:00,43.0,38.0,30.05,East,92,10.0,23.0,81,0.00,,,0.00,0.000000,,2013-02-10 10:41:00,
2013-02-10 02:51:00,43.0,38.0,30.05,East,92,10.0,23.0,81,0.00,,,0.00,0.000000,,2013-02-10 10:51:00,
2013-02-10 03:21:00,43.0,39.0,30.04,NW,320,10.0,23.0,86,0.00,,,0.00,0.000000,,2013-02-10 11:21:00,
2013-02-10 03:32:00,43.0,39.0,30.04,NW,320,10.0,23.0,86,0.00,,,0.00,0.000000,,2013-02-10 11:32:00,
2013-02-10 03:42:00,43.0,39.0,30.04,NW,320,10.0,23.0,86,0.00,,,0.00,0.000000,,2013-02-10 11:42:00,
2013-02-10 03:52:00,43.0,39.0,30.04,NW,320,10.0,23.0,86,0.00,,,0.00,0.000000,,2013-02-10 11:52:00,
2013-02-10 07:21:00,42.0,39.0,30.02,NE,52,9.0,24.0,88,-99.99,,,0.00,0.000000,,2013-02-10 15:21:00,
2013-02-10 07:31:00,42.0,39.0,30.02,NE,52,9.0,24.0,88,-99.99,,,0.00,0.000000,,2013-02-10 15:31:00,
2013-02-10 07:41:00,42.0,39.0,30.02,NE,52,9.0,24.0,88,-99.99,,,0.00,0.000000,,2013-02-10 15:41:00,
2013-02-10 07:51:00,42.0,39.0,30.02,NE,52,9.0,24.0,88,-99.99,,,0.00,0.000000,,2013-02-10 15:51:00,
2013-02-10 08:21:00,42.0,38.0,30.03,NE,52,9.0,23.0,87,-99.99,,,0.00,2.000000,,2013-02-10 16:21:00,
2013-02-10 08:32:00,42.0,38.0,30.03,NE,52,9.0,23.0,87,-99.99,,,0.00,2.000000,,2013-02-10 16:32:00,
2013-02-10 08:42:00,42.0,38.0,30.03,NE,52,9.0,23.0,87,-99.99,,,0.00,2.000000,,2013-02-10 16:42:00,
2013-02-10 08:51:00,42.0,38.0,30.03,NE,52,9.0,23.0,87,-99.99,,,0.00,2.000000,,2013-02-10 16:51:00,
2013-02-10 09:21:00,45.0,40.0,30.04,NNE,26,7.0,34.0,82,0.00,,,0.00,74.000000,,2013-02-10 17:21:00,
2013-02-10 09:32:00,45.0,40.0,30.04,NNE,26,7.0,34.0,82,0.00,,,0.00,74.000000,,2013-02-10 17:32:00,
2013-02-10 09:42:00,45.0,40.0,30.04,NNE,26,7.0,34.0,82,0.00,,,0.00,74.000000,,2013-02-10 17:42:00,
2013-02-10 09:52:00,45.0,40.0,30.04,NNE,26,7.0,34.0,82,0.00,,,0.00,74.000000,,2013-02-10 17:52:00,
2013-02-10 10:21:00,51.0,42.0,30.05,ESE,117,10.0,35.0,72,0.00,,,0.00,295.000000,,2013-02-10 18:21:00,
2013-02-10 10:32:00,51.0,42.0,30.05,ESE,117,10.0,35.0,72,0.00,,,0.00,295.000000,,2013-02-10 18:32:00,
2013-02-10 10:41:00,51.0,42.0,30.05,ESE,117,10.0,35.0,72,0.00,,,0.00,295.000000,,2013-02-10 18:41:00,
2013-02-10 10:52:00,51.0,42.0,30.05,ESE,117,10.0,35.0,72,0.00,,,0.00,295.000000,,2013-02-10 18:52:00,
2013-02-10 11:21:00,52.0,41.0,30.05,WSW,244,9.0,36.0,65,0.00,,,0.00,413.000000,,2013-02-10 19:21:00,
2013-02-10 11:32:00,52.0,41.0,30.05,WSW,244,9.0,36.0,65,0.00,,,0.00,413.000000,,2013-02-10 19:32:00,
2013-02-10 11:42:00,52.0,41.0,30.05,WSW,244,9.0,36.0,65,0.00,,,0.00,413.000000,,2013-02-10 19:42:00,
2013-02-10 11:51:00,52.0,41.0,30.05,WSW,244,9.0,36.0,65,0.00,,,0.00,413.000000,,2013-02-10 19:51:00,
2013-02-10 12:21:00,48.0,41.0,30.05,NW,318,10.0,47.0,77,0.00,,,0.00,380.000000,,2013-02-10 20:21:00,
2013-02-10 12:32:00,48.0,41.0,30.05,NW,318,10.0,47.0,77,0.00,,,0.00,380.000000,,2013-02-10 20:32:00,
2013-02-10 12:42:00,48.0,41.0,30.05,NW,318,10.0,47.0,77,0.00,,,0.00,380.000000,,2013-02-10 20:42:00,
2013-02-10 12:52:00,48.0,41.0,30.05,NW,318,10.0,47.0,77,0.00,,,0.00,380.000000,,2013-02-10 20:52:00,
2013-02-10 13:21:00,52.0,42.0,30.03,NNW,345,8.0,36.0,69,0.00,,,0.00,512.000000,,2013-02-10 21:21:00,
2013-02-10 13:32:00,52.0,42.0,30.03,NNW,345,8.0,36.0,69,0.00,,,0.00,512.000000,,2013-02-10 21:32:00,
2013-02-10 13:42:00,52.0,42.0,30.03,NNW,345,8.0,36.0,69,0.00,,,0.00,512.000000,,2013-02-10 21:42:00,
2013-02-10 13:51:00,52.0,42.0,30.03,NNW,345,8.0,36.0,69,0.00,,,0.00,512.000000,,2013-02-10 21:51:00,
2013-02-10 14:21:00,48.0,41.0,30.01,ENE,76,8.0,48.0,77,0.00,,,0.00,150.000000,,2013-02-10 22:21:00,
2013-02-10 14:32:00,48.0,41.0,30.01,ENE,76,8.0,48.0,77,0.00,,,0.00,150.000000,,2013-02-10 22:32:00,
2013-02-10 14:42:00,48.0,41.0,30.01,ENE,76,8.0,48.0,77,0.00,,,0.00,150.000000,,2013-02-10 22:42:00,
2013-02-10 14:52:00,48.0,41.0,30.01,ENE,76,8.0,48.0,77,0.00,,,0.00,150.000000,,2013-02-10 22:52:00,
2013-02-10 15:21:00,50.0,41.0,29.98,SW,222,14.0,71.0,70,0.00,,,0.00,257.000000,,2013-02-10 23:21:00,
2013-02-10 15:32:00,50.0,41.0,29.98,SW,222,14.0,71.0,70,0.00,,,0.00,257.000000,,2013-02-10 23:32:00,
2013-02-10 15:41:00,50.0,41.0,29.98,SW,222,14.0,71.0,70,0.00,,,0.00,257.000000,,2013-02-10 23:41:00,
2013-02-10 15:52:00,50.0,41.0,29.98,SW,222,14.0,71.0,70,0.00,,,0.00,257.000000,,2013-02-10 23:52:00,
2013-02-10 16:22:00,54.0,42.0,29.98,NW,318,8.0,117.0,64,0.00,,,0.00,395.000000,,2013-02-11 00:22:00,
2013-02-10 16:32:00,54.0,42.0,29.98,NW,318,8.0,117.0,64,0.00,,,0.00,395.000000,,2013-02-11 00:32:00,
2013-02-10 16:41:00,54.0,42.0,29.98,NW,318,8.0,117.0,64,0.00,,,0.00,395.000000,,2013-02-11 00:41:00,
2013-02-10 16:51:00,54.0,42.0,29.98,NW,318,8.0,117.0,64,0.00,,,0.00,395.000000,,2013-02-11 00:51:00,
2013-02-10 17:21:00,52.0,40.0,29.97,WNW,301,12.0,36.0,64,0.00,,,0.00,426.000000,,2013-02-11 01:21:00,
2013-02-10 17:32:00,52.0,40.0,29.97,WNW,301,12.0,36.0,64,0.00,,,0.00,426.000000,,2013-02-11 01:32:00,
2013-02-10 17:41:00,52.0,40.0,29.97,WNW,301,12.0,36.0,64,0.00,,,0.00,426.000000,,2013-02-11 01:41:00,
2013-02-10 17:52:00,52.0,40.0,29.97,WNW,301,12.0,36.0,64,0.00,,,0.00,426.000000,,2013-02-11 01:52:00,
2013-02-10 18:21:00,49.0,43.0,29.98,SSW,213,26.0,74.0,79,0.00,,,0.00,166.000000,,2013-02-11 02:21:00,
2013-02-10 18:31:00,49.0,43.0,29.98,SSW,213,26.0,74.0,79,0.00,,,0.00,166.000000,,2013-02-11 02:31:00,
2013-02-10 18:41:00,49.0,43.0,29.98,SSW,213,26.0,74.0,79,0.00,,,0.00,166.000000,,2013-02-11 02:41:00,
2013-02-10 18:52:00,49.0,43.0,29.98,SSW,213,26.0,74.0,79,0.00,,,0.00,166.000000,,2013-02-11 02:52:00,
2013-02-10 19:21:00,43.0,40.0,29.99,WNW,290,17.0,36.0,90,0.00,,,0.00,29.000000,,2013-02-11 03:21:00,
2013-02-10 19:31:00,43.0,40.0,29.99,WNW,290,17.0,36.0,90,0.00,,,0.00,29.000000,,2013-02-11 03:31:00,
2013-02-10 19:41:00,43.0,40.0,29.99,WNW,290,17.0,36.0,90,0.00,,,0.00,29.000000,,2013-02-11 03:41:00,
2013-02-10 19:52:00,43.0,40.0,29.99,WNW,290,17.0,36.0,90,0.00,,,0.00,29.000000,,2013-02-11 03:52:00,
2013-02-10 20:21:00,43.0,38.0,29.99,NW,312,16.0,49.0,82,0.00,,,-99.99,0.000000,,2013-02-11 04:21:00,
2013-02-10 20:31:00,43.0,38.0,29.99,NW,312,16.0,49.0,82,0.00,,,-99.99,0.000000,,2013-02-11 04:31:00,
2013-02-10 20:41:00,43.0,38.0,29.99,NW,312,16.0,49.0,82,0.00,,,-99.99,0.000000,,2013-02-11 04:41:00,
2013-02-10 20:51:00,43.0,38.0,29.99,NW,312,16.0,49.0,82,0.00,,,-99.99,0.000000,,2013-02-11 04:51:00,
2013-02-10 21:22:00,43.0,36.0,29.99,ENE,72,18.0,49.0,76,0.00,,,0.00,0.000000,,2013-02-11 05:22:00,
2013-02-10 21:31:00,43.0,36.0,29.99,ENE,72,18.0,49.0,76,0.00,,,0.00,0.000000,,2013-02-11 05:31:00,
2013-02-10 21:41:00,43.0,36.0,29.99,ENE,72,18.0,49.0,76,0.00,,,0.00,0.000000,,2013-02-11 05:41:00,
2013-02-10 21:52:00,43.0,36.0,29.99,ENE,72,18.0,49.0,76,0.00,,,0.00,0.000000,,2013-02-11 05:52:00,
2013-02-10 22:21:00,43.0,35.0,30.01,SE,136,24.0,40.0,72,0.00,,,0.00,0.000000,,2013-02-11 06:21:00,
2013-02-10 22:32:00,43.0,35.0,30.01,SE,136,24.0,40.0,72,0.00,,,0.00,0.000000,,2013-02-11 06:32:00,
2013-02-10 22:42:00,43.0,35.0,30.01,SE,136,24.0,40.0,72,0.00,,,0.00,0.000000,,2013-02-11 06:42:00,
2013-02-10 22:51:00,43.0,35.0,30.01,SE,136,24.0,40.0,72,0.00,,,0.00,0.000000,,2013-02-11 06:51:00,
2013-02-10 23:21:00,43.0,32.0,30.02,NE,49,6.0,35.0,66,0.00,,,0.00,0.000000,,2013-02-11 07:21:00,
2013-02-10 23:32:00,43.0,32.0,30.02,NE,49,6.0,35.0,66,0.00,,,0.00,0.000000,,2013-02-11 07:32:00,
2013-02-10 23:41:00,43.0,32.0,30.02,NE,49,6.0,35.0,66,0.00,,,0.00,0.000000,,2013-02-11 07:41:00,
2013-02-10 23:51:00,43.0,32.0,30.02,NE,49,6.0,35.0,66,0.00,,,0.00,0.000000,,2013-02-11 07:51:00,